Hibbing, MN

3:22 PM CDT on April 30, 2017 (GMT -0500)
Chisholm-hibbing

Weather History for KHIB - November, 2012

Change the Weather History Date:

Saturday, November 3, 2012

  Actual Average Record
Temperature  
Mean Temperature 31 °F -  
Max Temperature 37 °F 39 °F 70 °F (1978)
Min Temperature 25 °F 24 °F 1 °F (1966)
Degree Days  
Heating Degree Days 34    
Moisture  
Dew Point 25 °F    
Average Humidity 80    
Maximum Humidity 88    
Minimum Humidity 65    
Precipitation  
Precipitation 0.00 in - - ()
Sea Level Pressure  
Sea Level Pressure 30.27 in    
Wind  
Wind Speed 2 mph (SE)    
Max Wind Speed 8 mph    
Max Gust Speed -    
Visibility 8 miles    
Events Snow    
Averages and records for this station are not official NWS values.
T = Trace of Precipitation, MM = Missing Value Source: NWS Daily Summary

Daily Weather History Graph

Daily Weather History Graph

Search for Another Location

Airport or City:

Trip Planner

Search our weather history database for the weather conditions in past years. The results will help you decide how hot, cold, wet, or windy it might be!

Date:

Astronomy

Nov. 03, 2012 Rise Set
Actual Time 7:58 AM CDT 5:50 PM CDT
Civil Twilight 7:26 AM CDT 6:22 PM CDT
Nautical Twilight 6:49 AM CDT 6:59 PM CDT
Astronomical Twilight 6:14 AM CDT 7:34 PM CDT
Moon 9:25 PM CDT (11/3) 12:10 PM CDT (11/3)
Length of Visible Light 10h 56m
Length of Day
9h 51m
Waning Gibbous, 80% of the Moon is Illuminated
Nov 3
Waning Gibbous
Nov 6
Last Quarter
Nov 13
New
Nov 20
First Quarter
Nov 28
Full

Hourly Weather History & Observations

Time (CDT) Temp. Windchill Dew Point Humidity Pressure Visibility Wind Dir Wind Speed Gust Speed Precip Events Conditions
12:53 AM 28.0 °F - 21.9 °F 78% 30.27 in 10.0 mi Calm Calm - N/A   Clear
1:53 AM 27.0 °F - 23.0 °F 85% 30.27 in 10.0 mi Calm Calm - N/A   Clear
2:53 AM 27.0 °F 21.6 °F 23.0 °F 85% 30.27 in 10.0 mi SE 4.6 mph - N/A   Scattered Clouds
3:53 AM 28.0 °F - 23.0 °F 81% 30.25 in 10.0 mi Calm Calm - N/A   Overcast
4:53 AM 28.9 °F 25.2 °F 23.0 °F 78% 30.25 in 10.0 mi ESE 3.5 mph - N/A   Overcast
5:53 AM 28.9 °F - 24.1 °F 82% 30.27 in 10.0 mi Calm Calm - N/A   Overcast
6:53 AM 28.9 °F - 24.1 °F 82% 30.27 in 10.0 mi Calm Calm - N/A   Overcast
7:53 AM 28.9 °F - 24.1 °F 82% 30.27 in 9.0 mi Calm Calm - 0.00 in Snow Light Snow
8:53 AM 28.9 °F - 25.0 °F 85% 30.29 in 5.0 mi Calm Calm - 0.00 in Snow Light Snow
9:53 AM 30.0 °F 26.5 °F 26.1 °F 85% 30.30 in 4.0 mi East 3.5 mph - 0.00 in Snow Light Snow
10:29 AM 30.2 °F 26.7 °F 26.6 °F 86% 30.23 in 5.0 mi ESE 3.5 mph - 0.00 in Snow Light Snow
10:53 AM 32.0 °F 28.7 °F 27.0 °F 82% 30.30 in 4.0 mi Variable 3.5 mph - 0.00 in Snow Light Snow
11:06 AM 33.8 °F 30.8 °F 28.4 °F 81% 30.23 in 4.0 mi SSE 3.5 mph - 0.00 in Snow Light Snow
11:21 AM 32.0 °F 25.6 °F 26.6 °F 80% 30.24 in 2.5 mi SSE 6.9 mph - 0.00 in Snow Light Snow
11:31 AM 32.0 °F 26.4 °F 26.6 °F 80% 30.24 in 3.0 mi South 5.8 mph - 0.00 in Snow Light Snow
11:53 AM 33.1 °F 28.7 °F 28.0 °F 82% 30.30 in 4.0 mi SE 4.6 mph - 0.00 in Snow Light Snow
12:53 PM 34.0 °F 28.0 °F 28.0 °F 79% 30.30 in 9.0 mi SSE 6.9 mph - 0.00 in Snow Light Snow
1:23 PM 33.8 °F 27.0 °F 28.4 °F 81% 30.23 in 9.0 mi SSE 8.1 mph - 0.00 in Snow Light Snow
1:53 PM 35.1 °F 32.2 °F 28.0 °F 76% 30.29 in 10.0 mi SE 3.5 mph - 0.00 in   Overcast
2:53 PM 35.1 °F 31.0 °F 28.0 °F 76% 30.28 in 10.0 mi SSE 4.6 mph - 0.00 in   Overcast
3:35 PM 37.4 °F 33.8 °F 26.6 °F 65% 30.21 in 10.0 mi SSE 4.6 mph - N/A   Scattered Clouds
3:53 PM 37.0 °F 33.3 °F 27.0 °F 67% 30.26 in 10.0 mi SE 4.6 mph - N/A   Partly Cloudy
4:53 PM 37.0 °F 32.4 °F 27.0 °F 67% 30.26 in 10.0 mi SE 5.8 mph - N/A   Clear
5:53 PM 30.9 °F - 24.1 °F 76% 30.27 in 10.0 mi Calm Calm - N/A   Partly Cloudy
6:22 PM 30.2 °F - 24.8 °F 80% 30.21 in 10.0 mi Calm Calm - N/A   Overcast
6:53 PM 30.0 °F - 25.0 °F 82% 30.29 in 10.0 mi Calm Calm - N/A   Overcast
7:53 PM 30.0 °F - 25.0 °F 82% 30.30 in 10.0 mi Calm Calm - N/A   Overcast
8:53 PM 28.9 °F - 24.1 °F 82% 30.30 in 10.0 mi Calm Calm - N/A   Scattered Clouds
9:53 PM 27.0 °F - 21.9 °F 81% 30.31 in 10.0 mi Calm Calm - N/A   Overcast
10:53 PM 25.0 °F - 21.9 °F 88% 30.31 in 10.0 mi Calm Calm - N/A   Overcast
11:53 PM 28.0 °F - 23.0 °F 81% 30.30 in 10.0 mi Calm Calm - N/A   Overcast